Probability
5 9 16 21 24 30 37 44 53 57 50 42 31 18 8 2 0 0 0 0 0 0 0 0 0 1 9 22 34 44 52 51 35 17 10 9 8 6 3 2 1 0 0
2 4 8 12 16 21 25 32 41 47 44 37 29 19 10 3 1 0 0 0 0 0 0 0 0 0 5 15 25 31 37 36 25 12 5 4 4 3 2 1 0 0 0
0 0 1 3 5 9 13 18 25 33 34 30 25 20 11 4 1 0 0 0 0 0 0 0 0 0 3 9 14 16 18 16 12 5 1 0 1 1 1 0 0 0 0
0 0 0 0 1 2 4 8 13 18 23 23 22 17 11 4 1 0 0 0 0 0 0 0 0 0 2 6 7 7 7 5 4 2 0 0 0 0 0 0 0 0 0
0 0 0 0 0 0 0 2 6 9 12 16 17 13 9 4 1 0 0 0 0 0 0 0 0 0 1 2 3 3 3 1 1 0 0 0 0 0 0 0 0 0 0
0 0 0 0 0 0 0 0 2 5 8 12 13 10 7 3 0 0 0 0 0 0 0 0 0 0 0 0 0 1 1 0 0 0 0 0 0 0 0 0 0 0 0
0 0 0 0 0 0 0 0 1 3 6 9 10 9 6 2 0 0 0 0 0 0 0 0 0 0 0 0 0 0 0 0 0 0 0 0 0 0 0 0 0 0 0
0 0 0 0 0 0 0 0 0 2 3 5 7 7 6 2 0 0 0 0 0 0 0 0 0 0 0 0 0 0 0 0 0 0 0 0 0 0 0 0 0 0 0
0 0 0 1 0 0 0 0 0 1 1 2 4 6 5 2 0 0 0 0 0 0 0 0 0 0 0 0 0 0 0 0 0 0 0 0 0 0 0 0 0 0 0
0 0 0 0 0 0 0 0 0 0 0 0 2 3 3 2 1 0 0 0 0 0 0 0 0 0 0 0 0 0 0 0 0 0 0 0 0 0 0 0 0 0 0
0 0 0 0 0 0 0 0 0 0 0 0 0 1 2 2 1 0 0 0 0 0 0 0 0 0 0 0 0 0 0 0 0 0 0 0 0 0 0 0 0 0 0
0 0 0 0 0 0 0 0 0 0 0 0 0 0 1 1 0 0 0 0 0 0 0 0 0 0 0 0 0 0 0 0 0 0 0 0 0 0 0 0 0 0 0
0 0 0 0 0 0 0 0 0 0 0 0 0 0 0 0 0 0 0 0 0 0 0 0 0 0 0 0 0 0 0 0 0 0 0 0 0 0 0 0 0 0 0
0 0 0 0 0 0 0 0 0 0 0 0 0 0 0 0 0 0 0 0 0 0 0 0 0 0 0 0 0 0 0 0 0 0 0 0 0 0 0 0 0 0 0
0 0 0 0 0 0 0 0 0 0 0 0 0 0 0 0 0 0 0 0 0 0 0 0 0 0 0 0 0 0 0 0 0 0 0 0 0 0 0 0 0 0 0
0 0 0 0 0 0 0 0 0 0 0 0 0 0 0 0 0 0 0 0 0 0 0 0 0 0 0 0 0 0 0 0 0 0 0 0 0 0 0 0 0 0 0
0 0 0 0 0 0 0 0 0 0 0 0 0 0 0 0 0 0 0 0 0 0 0 0 0 0 0 0 0 0 0 0 0 0 0 0 0 0 0 0 0 0 0
0 0 0 0 0 0 0 0 0 0 0 0 0 0 0 0 0 0 0 0 0 0 0 0 0 0 0 0 0 0 0 0 0 0 0 0 0 0 0 0 0 0 0
0 0 0 0 0 0 0 0 0 0 0 0 0 0 0 0 0 0 0 0 0 0 0 0 0 0 0 0 0 0 0 0 0 0 0 0 0 0 0 0 0 0 0
0 0 0 0 0 0 0 0 0 0 0 0 0 0 0 0 0 0 0 0 0 0 0 0 0 0 0 0 0 0 0 0 0 0 0 0 0 0 0 0 0 0 0
0 0 0 0 0 0 0 0 0 0 0 0 0 0 0 0 0 0 0 0 0 0 0 0 0 0 0 0 0 0 0 0 0 0 0 0 0 0 0 0 0 0 0
0 0 0 0 0 0 0 0 0 0 0 0 0 0 0 0 0 0 0 0 0 0 0 0 0 0 0 0 0 0 0 0 0 0 0 0 0 0 0 0 0 0 0
0 0 0 0 0 0 0 0 0 0 0 0 0 0 0 0 0 0 0 0 0 0 0 0 0 0 0 0 0 0 0 0 0 0 0 0 0 0 0 0 0 0 0
0 0 0 0 0 0 0 0 0 0 0 0 0 0 0 0 0 0 0 0 0 0 0 0 0 0 0 0 0 0 0 0 0 0 0 0 0 0 0 0 0 0 0
0 0 0 0 0 0 0 0 0 0 0 0 0 0 0 0 0 0 0 0 0 0 0 0 0 0 0 0 0 0 0 0 0 0 0 0 0 0 0 0 0 0 0
0 0 0 0 0 0 0 0 0 0 0 0 0 0 0 0 0 0 0 0 0 0 0 0 0 0 0 0 0 0 0 0 0 0 0 0 0 0 0 0 0 0 0
Wind_Speed
11 11 11 10 10 10 10 11 11 11 10 11 10 10 10 10 10 10 11 11 11 10 9 8 8 8 6 5 4 4 4 4 4 4 3 4 5 6 6 7 7 8 10
11 11 12 12 12 12 12 12 11 11 11 12 11 10 10 9 9 9 10 9 9 8 7 6 6 4 4 3 2 2 2 4 6 8 4 4 5 6 7 7 7 8 9
11 11 11 12 12 13 13 13 12 12 12 12 11 11 9 8 8 7 7 7 6 6 5 4 4 3 2 2 3 4 5 6 7 8 6 3 4 5 7 8 8 7 10
10 10 10 10 11 12 13 14 13 13 12 12 12 11 9 7 6 5 5 4 4 4 4 4 4 4 4 5 6 7 7 8 8 8 7 5 5 6 6 7 7 7 8
10 11 11 10 10 11 12 13 13 13 13 12 12 11 9 7 4 3 3 1 1 3 4 5 6 9 10 7 6 6 7 7 7 7 7 7 6 6 6 7 8 8 8
13 14 13 12 12 11 11 12 13 13 12 12 12 12 10 7 5 0 3 2 2 3 5 6 7 10 13 13 13 11 7 6 7 6 6 7 7 7 6 6 8 8 7
15 15 15 14 14 13 13 12 12 12 12 11 11 11 11 7 8 5 3 3 4 4 5 5 6 8 8 9 12 12 11 9 6 5 8 8 8 7 7 7 6 7 7
16 16 16 16 15 14 13 13 12 11 10 10 10 11 10 9 11 8 5 5 6 6 6 7 8 8 7 8 10 11 10 9 7 8 8 8 8 7 7 9 10 9 8
17 17 16 16 16 15 14 13 11 10 10 10 9 10 11 10 13 11 9 8 7 7 7 7 8 9 7 7 11 12 11 10 13 15 13 12 12 9 3 6 7 7 8
18 17 16 16 16 16 15 14 11 9 10 9 9 9 11 11 14 14 12 8 9 8 7 7 7 9 8 6 10 11 11 10 10 11 10 10 10 8 6 4 4 6 7
18 17 16 16 16 16 15 13 12 10 9 9 9 8 9 10 15 15 13 7 9 9 9 8 8 9 7 4 6 9 10 10 10 10 9 9 8 7 7 8 8 6 6
18 18 17 17 16 14 14 13 12 10 10 9 7 7 6 8 12 14 13 8 4 8 8 8 10 10 7 4 6 10 9 8 7 7 7 7 7 8 8 9 10 10 9
18 18 17 17 15 15 14 14 12 10 8 7 5 5 5 6 9 14 13 8 3 5 7 11 14 14 11 8 11 11 9 6 7 7 7 7 8 9 8 8 9 9 9
18 17 16 15 15 15 12 12 11 9 8 6 5 5 4 5 9 12 11 9 10 10 11 14 13 9 8 11 10 9 7 5 6 7 8 8 8 7 7 7 7 7 8
17 16 15 14 14 13 12 11 11 9 6 6 5 5 5 6 8 13 14 13 12 12 13 11 11 11 11 10 9 7 7 7 6 7 7 8 7 6 6 5 4 5 6
15 14 11 11 10 11 11 10 10 9 7 8 9 8 6 6 7 13 14 13 15 17 14 12 11 11 11 10 10 9 8 8 7 7 7 7 7 7 6 6 5 5 5
14 12 10 10 10 10 10 9 8 8 10 10 11 11 10 9 11 14 15 17 18 17 12 11 11 10 10 10 9 9 9 8 7 7 7 7 7 7 6 6 5 5 5
13 12 11 10 9 9 9 9 7 7 6 5 7 10 12 13 15 16 18 17 13 13 11 11 11 10 10 9 9 9 9 9 8 7 7 7 7 7 6 6 5 5 5
10 8 8 8 8 8 9 8 7 7 5 3 4 6 10 13 16 18 19 14 15 14 11 11 11 10 10 9 9 9 10 9 8 8 7 7 6 6 6 6 6 4 2
7 9 9 7 7 8 8 7 6 6 4 4 5 7 10 11 11 13 13 13 13 13 11 11 11 10 10 9 9 9 9 9 9 8 8 7 6 6 7 7 7 6 4
5 6 10 8 8 7 6 6 5 5 4 5 7 11 15 13 14 16 14 13 13 13 11 11 11 11 10 9 9 10 11 10 9 8 8 7 7 6 6 6 6 5 5
3 4 5 6 5 5 5 5 5 4 5 6 8 12 16 13 14 15 14 12 12 11 11 11 11 11 10 10 10 10 10 10 9 9 8 8 7 7 6 6 6 5 5
2 2 3 4 4 4 5 5 5 5 5 7 10 12 13 13 14 15 14 12 11 11 11 10 11 11 11 10 10 10 10 10 9 9 9 8 8 7 6 6 6 5 5
2 3 3 4 4 4 4 4 4 5 6 9 11 12 13 13 14 15 14 11 11 11 11 11 11 13 14 11 9 10 9 9 10 10 11 9 8 8 7 7 7 7 6
2 2 3 3 3 3 3 3 4 5 7 10 11 13 13 13 13 13 12 11 12 11 12 12 10 12 15 15 12 9 9 8 5 7 11 9 9 8 8 8 7 7 8
3 3 3 2 2 1 2 3 3 6 9 10 11 12 13 13 13 12 12 11 11 11 11 11 12 13 14 14 14 10 10 9 7 3 6 9 10 9 9 9 10 10 10
Wind_Direction
354 346 339 332 325 313 297 286 277 269 265 263 269 277 284 291 297 299 299 302 299 297 294 286 280 273 264 256 243 231 215 196 157 109 90 94 96 100 98 97 97 92 87
343 339 337 332 330 323 316 304 290 276 265 261 263 269 277 288 295 298 303 310 313 311 308 306 306 302 278 253 217 177 149 141 132 124 107 96 94 100 100 95 94 92 91
328 327 327 325 328 325 319 312 301 285 270 263 258 261 270 280 286 292 301 310 316 319 320 327 333 358 32 70 99 105 104 107 111 118 116 103 101 110 104 100 100 104 100
308 306 307 310 314 317 317 316 308 293 275 261 255 254 258 264 272 287 295 309 330 347 360 10 20 50 70 83 88 95 104 109 115 119 122 122 121 125 124 124 117 108 106
288 287 287 289 295 299 306 310 307 297 281 263 253 247 244 244 248 278 274 306 17 55 53 48 57 73 71 76 90 100 110 115 120 124 126 129 129 140 136 131 119 118 111
287 287 287 286 286 290 296 302 305 301 290 275 254 243 237 230 120 99 284 146 111 96 87 82 81 80 81 79 78 75 78 110 123 129 128 126 128 127 126 135 139 133 119
287 286 285 284 284 286 291 298 303 304 298 285 264 246 233 190 148 170 233 183 136 114 106 101 96 92 93 101 95 88 75 69 91 108 115 122 125 129 137 124 103 100 96
286 284 284 283 281 281 283 288 296 301 299 291 275 253 232 187 164 174 192 183 136 126 121 115 112 110 110 115 112 103 91 69 72 94 99 97 101 104 105 107 112 115 110
284 284 283 283 282 280 278 281 288 294 296 292 282 262 234 188 169 174 195 172 148 139 135 130 128 125 127 127 118 111 104 92 71 71 76 80 67 55 64 139 143 130 114
283 282 282 282 280 277 276 278 278 281 286 290 283 267 242 202 173 178 199 183 156 149 139 136 135 137 148 156 134 127 121 116 115 110 106 113 104 85 47 60 114 125 122
281 280 279 276 275 272 269 267 267 271 280 285 284 270 250 214 173 180 199 204 166 163 157 158 140 137 156 172 158 136 131 133 130 127 122 117 113 103 86 65 43 54 84
279 276 274 272 271 270 264 261 260 265 271 274 277 270 251 216 180 182 191 221 211 168 162 152 134 144 149 156 136 126 145 164 143 134 125 118 111 99 86 77 69 66 68
279 275 273 270 266 265 264 259 253 249 258 269 274 259 243 217 174 168 176 185 196 167 125 110 129 140 138 124 127 145 177 170 140 133 124 114 102 102 109 108 102 99 95
276 273 270 267 263 258 254 252 248 247 251 261 266 254 229 224 182 169 168 160 140 129 120 119 131 148 140 124 148 178 191 147 140 130 124 122 129 144 145 139 139 138 124
272 269 266 262 262 262 254 248 249 246 251 259 266 251 219 215 200 175 168 170 169 149 144 148 151 154 154 158 165 163 150 146 144 135 138 144 144 136 123 112 116 124 120
267 263 259 255 255 255 252 243 221 229 199 211 232 233 229 223 197 172 165 151 139 146 159 159 161 162 160 159 158 157 158 154 148 147 149 149 144 138 134 137 135 120 110
262 259 254 251 249 250 249 245 234 213 206 213 219 218 214 196 177 163 150 140 145 161 174 162 163 162 158 157 157 157 152 144 149 151 148 145 143 142 141 137 130 124 115
259 253 247 245 244 246 247 244 238 233 223 219 203 197 188 179 167 153 140 141 156 184 179 163 163 160 159 158 156 149 143 148 159 152 147 149 151 147 144 142 132 126 124
254 244 239 240 240 240 240 239 233 232 233 225 173 162 166 158 151 150 155 169 171 186 179 165 165 163 161 158 150 148 151 156 156 154 149 154 154 152 147 136 116 107 149
252 238 240 241 237 237 235 232 228 223 223 212 181 157 147 148 153 163 180 183 177 184 178 168 167 165 163 159 155 157 155 152 156 163 152 159 158 152 147 150 148 159 150
247 225 217 231 235 235 233 229 225 220 213 193 178 160 160 164 163 172 184 187 181 180 178 171 166 168 166 164 164 165 163 161 167 165 155 161 161 156 156 155 156 157 142
246 229 221 229 233 234 231 224 220 217 202 186 163 153 169 172 167 174 186 185 181 177 174 174 171 172 172 172 170 171 171 170 170 168 164 163 163 167 167 166 169 166 161
246 235 234 232 232 223 228 224 221 208 189 173 158 159 174 175 171 176 183 182 177 172 171 177 178 175 175 176 177 179 179 176 173 172 173 174 176 179 182 179 183 191 194
266 248 241 232 228 228 225 220 200 189 178 161 160 166 174 173 172 177 180 177 171 170 173 180 186 180 175 177 181 186 183 176 176 178 186 190 190 192 193 194 206 210 214
273 264 255 251 242 232 209 187 183 175 157 158 161 168 172 171 172 174 177 174 171 173 177 181 186 183 180 187 191 188 145 138 170 184 183 203 210 210 215 216 222 227 233
300 287 269 257 255 232 175 171 172 149 146 154 162 168 168 168 168 170 173 173 172 173 178 184 189 187 183 192 196 168 140 151 169 214 221 206 213 220 224 233 237 240 243